User: anonymous
Location: Unspecified
(0.0000°N, 0.0000°E)
Time: 12:14:57
(UTC+02:00)
Language:

Cosmos 1943 Rocket - Orbit

View from above orbital plane
View from above orbital plane
View from above satellite
View from above satellite

Ground track
Ground track

The orbit data is extracted from the following two-line orbital elements,

1 19120U 88039B   14242.46758774 -.00000128  00000-0 -38089-4 0  1337
2 19120 071.0168 323.5841 0023818 311.3654 125.7069 14.19041587361447
Epoch (UTC): 30 August 2014 11:13:19
Eccentricity: 0.0023818
inclination: 71.0168°
perigee height: 811 km
apogee height: 846 km
right ascension of ascending node: 323.5841°
argument of perigee: 311.3654°
revolutions per day: 14.19041587
mean anomaly at epoch: 125.7069°
orbit number at epoch: 36144

The dashed part of the orbit path shows where the satellite is in the earth's shadow,  

DLR